Epoch 2009 May 9.0 TT = JDT 2454960.5 T 2009 May 7.43415 TT MPC q 1.2741595 (2000.0) P Q z +0.0019627 Peri. 129.77283 -0.04042577 -0.16268431 +/-0.0000156 Node 278.67904 +0.28320075 +0.94433007 e 0.9974993 Incl. 85.76477 +0.95820827 -0.28596248
m1 = 4.0 + 5 logΔ + 30.0 log r(t + 10) [ ,113] ( 〜2009年 8月28日) m1 = 11.0 + 5 logΔ + 10.0 log r [113, ] (2009年 8月28日〜 )